Retour au catalogue

STARLINK-3395

ActifCommunicationsVLEO
NORAD 51130·PAYLOAD·🇺🇸 United States

Lancé Jan 19, 2022 depuis Cape Canaveral Space Force Station

Loading…

Prochains Passages (prochaines 24 heures)

TLE

FraisSource: CelesTrak SupGP

Époque: Sep 14, 2026, 21:37 UTC

1 51130C 22005AC  26257.90118056 -.00028675  00000+0 -84718-3 0  2578
2 51130  53.1586 163.9727 0001291  93.9290 233.8339 15.34406358    11

Suivez STARLINK-3395 en temps réel avec AllMySat

Download on the App Store